This is the latest recevied weather packets stored in our database for station/object KD4UFD. If no packets are shown the sender has not sent any weather packets the latest 10 day(s).
| Time | Temp. | Humidity | Pressure | Rain* | Wind** | Luminosity | Snow |
|---|---|---|---|---|---|---|---|
| 1778258111 | 18.89° C | 52% | 1016.7 hPa | 0 mm | - | 655 W/m² | - |
| 1778257807 | 18.89° C | 50% | 1016.6 hPa | 0 mm | - | 744 W/m² | - |
| 1778257505 | 18.33° C | 48% | 1017 hPa | 0 mm | - | 748 W/m² | - |
| 1778257202 | 18.33° C | 47% | 1017.1 hPa | 0 mm | - | 695 W/m² | - |
| 1778256898 | 17.78° C | 51% | 1017.3 hPa | 0 mm | - | 677 W/m² | - |
| 1778256595 | 17.78° C | 47% | 1017.2 hPa | 0 mm | - | 672 W/m² | - |
| 1778256294 | 17.78° C | 52% | 1017.3 hPa | 0 mm | - | 727 W/m² | - |
| 1778255990 | 17.22° C | 46% | 1017.5 hPa | 0 mm | - | 759 W/m² | - |
| 1778255687 | 17.78° C | 48% | 1017.4 hPa | 0 mm | - | 762 W/m² | - |
| 1778255384 | 17.78° C | 52% | 1017.3 hPa | 0 mm | - | 765 W/m² | - |
| 1778255082 | 17.22° C | 46% | 1017.5 hPa | 0 mm | - | 764 W/m² | - |
| 1778254778 | 17.78° C | 48% | 1017.4 hPa | 0 mm | - | 767 W/m² | - |
| 1778254476 | 17.22° C | 49% | 1017.5 hPa | 0 mm | - | 780 W/m² | - |
| 1778254171 | 17.78° C | 49% | 1017.6 hPa | 0 mm | - | 784 W/m² | - |
| 1778253868 | 16.67° C | 52% | 1017.7 hPa | 0 mm | - | 804 W/m² | - |
| 1778253565 | 17.22° C | 48% | 1017.9 hPa | 0 mm | - | 789 W/m² | - |
| 1778253262 | 17.78° C | 48% | 1017.8 hPa | 0 mm | - | 805 W/m² | - |
| 1778252958 | 17.78° C | 50% | 1017.9 hPa | 0 mm | - | 844 W/m² | - |
| 1778252655 | 17.22° C | 51% | 1017.8 hPa | 0 mm | - | 815 W/m² | - |
| 1778252351 | 16.67° C | 50% | 1017.8 hPa | 0 mm | - | 875 W/m² | - |
| 1778252047 | 16.67° C | 49% | 1017.9 hPa | 0 mm | - | 873 W/m² | - |
| 1778251744 | 17.78° C | 52% | 1017.9 hPa | 0 mm | - | 858 W/m² | - |
| 1778251442 | 16.67° C | 53% | 1018 hPa | 0 mm | - | 796 W/m² | - |
| 1778251139 | 17.22° C | 54% | 1017.7 hPa | 0 mm | - | 769 W/m² | - |
| 1778250837 | 16.67° C | 56% | 1017.8 hPa | 0 mm | - | 740 W/m² | - |
* Rain latest hour (hover to see other rain measurements)
** Current wind speed in m/s (hover to see current wind gust speed)